Regional Weather Roundup
Issued by NWS

Home | Current Version | Previous Version | Graphics & Text | Print | Product List | Glossary Off
Versions: 1 2 3 4 5 6 7 8 9 10 11 12 13 14 15 16 17 18 19 20 21 22 23 24 25 26 27 28 29 30 31 32 33 34 35 36 37 38 39 40 41 42 43 44 45 46 47 48 49 50

000
ASUS43 KMKX 230720
RWRWI

WISCONSIN REGIONAL WEATHER ROUNDUP
NATIONAL WEATHER SERVICE MILWAUKEE/SULLIVAN WI
200 AM CDT WED MAY 23 2018

NOTE: "FAIR" INDICATES FEW OR NO CLOUDS BELOW 12,000 FEET WITH NO
SIGNIFICANT WEATHER AND/OR OBSTRUCTIONS TO VISIBILITY.

WIZ001-002-006>008-014>016-023>028-230800-
NORTHWEST WISCONSIN

CITY           SKY/WX    TMP DP  RH WIND       PRES   REMARKS
SUPERIOR ARPT  FAIR      54  53  96 S3        30.06F
ASHLAND        FAIR      56  53  90 SW5       30.08R
HAYWARD        FAIR      49  48  97 CALM      30.10S FOG
SIREN          FAIR      51  49  93 CALM      30.09S
CUMBERLAND     FAIR      52  50  93 CALM      30.10S
RICE LAKE      FAIR      52  51  97 CALM      30.12S
CHETEK         MOCLDY    51  51 100 CALM      30.10S FOG
LADYSMITH      FAIR      51  50  95 CALM      30.12S
EAU CLAIRE     FOG       51  50  96 CALM      30.09S VSB 3/4
MENOMONIE      FAIR      54  54  99 CALM      30.10S FOG
NEW RICHMOND   FAIR      57  55  92 S5        30.09S
OSCEOLA        FAIR      54  51  89 CALM      30.11S
$$

WIZ003>005-009-010-017-018-230800-
NORTH CENTRAL WISCONSIN

CITY           SKY/WX    TMP DP  RH WIND       PRES   REMARKS
MANITOWISH WTR FOG       47  47 100 CALM      30.11S VSB 1/4
ARBOR VITAE    FAIR      54  53  94 CALM      30.11R
WOODRUFF       FAIR      54  53  94 CALM      30.11R
RHINELANDER    FAIR      54  52  93 CALM      30.11R FOG
EAGLE RIVER    FAIR      49  48  99 CALM      30.10S
LAND O LAKES   FAIR      45  43  95 CALM      30.12S
PHILLIPS       FAIR      51  51 100 CALM      30.11S
TOMAHAWK       FOG       49  47  96 CALM      30.12S VSB 1/2
MEDFORD        FOG       51  51  99 CALM      30.11S VSB 1/4
MERRILL        FAIR      50  50 100 CALM      30.11S
$$

WIZ029-030-035-036-043>047-230800-
CENTRAL WISCONSIN

CITY           SKY/WX    TMP DP  RH WIND       PRES   REMARKS
WAUSAU         FAIR      56  56 100 N3        30.09R
MOSINEE        FAIR      54  54 100 CALM      30.12R FOG
MARSHFIELD     FOG       52  52 100 CALM      30.10S VSB 1/4
STEVENS POINT  FAIR      52  52 100 W3        30.13R FOG
WAUPACA        FAIR      57  56  98 W3        30.12R
WAUTOMA        FAIR      54  54 100 CALM      30.12R FOG
WISC RAPIDS    FOG       53  52  96 CALM      30.12S VSB 1/4
CAMP DOUGLAS   FOG       50  50 100 CALM      30.11R VSB 3/8
$$

WIZ011>013-019>022-031-037>040-048>050-230800-
NORTHEAST WISCONSIN

CITY           SKY/WX    TMP DP  RH WIND       PRES   REMARKS
ANTIGO         FAIR      51  50  99 CALM      30.11S
SHAWANO        FAIR      61  57  88 W6        30.09R
OCONTO         FAIR      59  56  90 W6        30.05S
STURGEON BAY   FAIR      57  54  89 S8        30.07R
GREEN BAY      FAIR      61  57  87 W8        30.08R
MANITOWOC      FAIR      60  57  89 W5        30.09R
APPLETON       FAIR      55  55 100 W7        30.09R
CLINTONVILLE   FAIR      59  56  88 W5        30.09S
OSHKOSH        FAIR      58  56  93 CALM      30.10R
$$

WIZ032>034-041-042-053>061-230800-
SOUTHWEST WISCONSIN

CITY           SKY/WX    TMP DP  RH WIND       PRES   REMARKS
LA CROSSE      FAIR      57  56  96 SE5       30.10R
SPARTA         FOG       47  47 100 CALM      30.12R VSB 3/4
VIROQUA        FAIR      57  57 100 S6        30.12R
BOSCOBEL       FOG       56  55  97 CALM      30.11S VSB 1/4
PRAIRIE DU CHI FAIR      57  56  96 SE3       30.10S
PLATTEVILLE    FAIR      57  57 100 E6        30.12S
$$

WIZ056-057-062-063-064-067-068-230800-
SOUTH CENTRAL WISCONSIN

CITY           SKY/WX    TMP DP  RH WIND       PRES   REMARKS
REEDSBURG      MOCLDY    53  53 100 CALM      30.11R FOG
BARABOO/DELLS  FOG       53  51  95 CALM      30.11R VSB 1/2
LONE ROCK      FOG       55  55 100 CALM      30.11S VSB 1/4
MINERAL POINT  FAIR      59  59 100 CALM      30.12R
MADISON        CLOUDY    53  53 100 CALM      30.11R FOG
MIDDLETON      FAIR      53  53 100 CALM      30.12R
WATERTOWN      FOG       50  50 100 CALM      30.11S VSB 1/4
MONROE         FAIR      59  55  88 CALM      30.11S
JANESVILLE     FOG       54  54 100 CALM      30.11S VSB 3/4
$$

WIZ051-052-058>065-066-070>072-230800-
SOUTHEAST WISCONSIN

CITY           SKY/WX    TMP DP  RH WIND       PRES   REMARKS
MILWAUKEE      FAIR      54  51  90 CALM      30.09S
WAUKESHA       FAIR      50  50 100 W3        30.12R
MILWAUKEE/TIMM FAIR      50  46  87 CALM      30.11S FOG
RACINE         FAIR      47  46  97 W6        30.11S FOG
BURLINGTON     FOG       50  50  98 CALM      30.11S VSB 3/4
KENOSHA        FAIR      51  49  92 W3        30.10S FOG
FOND DU LAC    FAIR      53  52  96 SW3       30.11R FOG
SHEBOYGAN      FAIR      57  55  93 W5        30.09S
WEST BEND      FAIR      52  52 100 CALM      30.11R FOG
JUNEAU         FOG       53  53  99 CALM      30.12S VSB<1/4
$$

LSZ147-162-230800-
LAKE SUPERIOR

STATION/POSITION TIME  TEMP    WIND        PRES    WAVE
                       AIR SEA DIR/SP/G            HT/PER
                 (UTC) (F)     (DEG/KT/KT) (MB)    (FT/S)
W MID LAKE BUOY  0650   43 36  220/  8/  8 1017.6R   0
DEVILS ISLAND    0700   61     240/ 15/ 16 1017.9R
SAXON HARBOR     0630   57     180/  5/  7 1017.6R
$$

LMZ867-665-643>646-230800-
LAKE MICHIGAN

STATION/POSITION TIME  TEMP    WIND        PRES    WAVE
                       AIR SEA DIR/SP/G            HT/PER
                 (UTC) (F)     (DEG/KT/KT) (MB)    (FT/S)
N MID LAKE BUOY  0700   40 37  160/  6/  8 1017.9
NORTHPORT PIER   0640   49     150/  2/  3 1017.3R
KEWAUNEE LAKESHO 0654   60     320/  3/  4 1017.5F
SHEBOYGAN LAKESH 0700   61     280/ 10/ 12 1018.7R
PORT WASHINGTON  0630   61     290/  7/  9 1019.6R
ATWATER BUOY     0637   53 47   50/  2/  2 1019.2R   0
MILWAUKEE LAKESH 0700   59     320/  3/  4   N/A
S MID LAKE BUOY  0650   40 39  190/  4/  4 1020.3R   0
KENOSHA   LAKESH 0700   54                 1019.3
$$

TC  - TEMPERATURE IN CELSIUS
VSB - VISIBILITY IN STATUTE MILES
WCI - WIND CHILL INDEX
HX  - HEAT INDEX





USA.gov is the U.S. government's official web portal to all federal, state and local government web resources and services.